{"data":{"norad_id":64551,"epoch":"2026-09-21T22:18:21.723840Z","epoch_age_seconds":58797,"freshness":"FRESH","line1":"1 64551U 25135Z   26264.92941810  .00005470  00000+0  21447-3 0  9997","line2":"2 64551  97.4696  20.4820 0000340  85.3415 274.7863 15.26179583 69675","mean_motion":15.26179583,"eccentricity":3.4e-5,"inclination_deg":97.4696,"raan_deg":20.482,"arg_perigee_deg":85.3415,"mean_anomaly_deg":274.7863,"bstar":0.00021447,"rev_number":6967,"period_min":94.353247549636,"perigee_km":487.01223150235,"apogee_km":487.47907752285,"semimajor_km":6865.3826545126,"source":"CELESTRAK","updated_at":"2026-09-22T09:00:29.844776Z"}}